ROMMA est une association bénévole à but non lucratif. Votre soutien est indispensable : ADHERER à ROMMA ou FAIRE un DON

Granges-lès-Beaumont - (26, Drôme)

Drôme des Collines (155 m)   Longitude: 04°58'E   Latitude: 45°03'N Station partenaire n°123
 

Détail journalier du     <<     >>

Température Precipitation Humidité Pression Vent Dir Rafale Dir. rafale Ensol.
Heure (°C) (mm) (%) (hPa) (km/h) (km/h) (min)
01:00 9.70.2939963O13OSO0
02:00 9.20949944ENE16ENE0
03:00 9.10949956ENE16E0
04:00 9.10959958NNE18ENE0
05:00 9.30939959ENE16ENE0
06:00 9.209499510ENE16ENE0
07:00 9.70919966ESE16E0
08:00 9.10939974OSO11OSO0
09:00 8.40929984ENE10O0
10:00 8.80949992NNO8NNO0
11:00 10.40929993ENE13ENE10
12:00 11.90859994ENE13E50
13:00 12.70779988ESE16ESE60
14:00 13.60649968E16ESE60
15:00 13.206699610SSO23SSO40
16:00 12.60769957SSO21SO0
17:00 12.307399516S39S0
18:00 12.306999315SSE40S0
19:00 11.707299215SSO34S0
20:00 11.607399115SSO37OSO0
21:00 12.107099117SO35SO0
22:00 10.51.68499416OSO44OSO0
23:00 10.208699211SE29SSE0
minuit 9.40899913E11ESE0

Graphique du 21-12-2019

 

Serveur OMMA